Theta_e
311 311 311 311 313 314 314 315 315 315 315 314 312 311 310 309 310 313 314 314 315 317 320 322 324 329 331 330 332 331 332 333 333 334 335 335 335 336 336 338 340 341 341 342 343 343 343 342 341 341 340 340 340 339 340 340 339 340 339 336 333 335 336 335 336 337 337 337 337 337 337 338 339 339 339 338 338 338 337 337 337 337 336 336 336 336
311 311 311 311 313 314 314 315 316 316 314 313 312 310 310 309 310 313 314 314 315 319 323 325 327 330 331 330 331 331 332 333 333 334 334 334 334 335 337 340 340 339 339 340 342 342 342 341 341 340 340 340 340 340 341 342 341 341 340 339 337 336 336 336 337 337 337 337 337 337 338 338 339 339 339 338 338 338 337 336 335 336 335 336 336 336
311 311 311 310 312 314 315 316 317 316 314 313 312 310 309 310 312 313 314 315 314 319 323 323 326 330 331 330 330 330 331 332 332 333 334 334 334 335 337 338 338 336 335 335 337 339 340 340 340 340 340 340 340 340 341 341 340 339 340 339 338 336 335 336 336 336 337 337 337 338 338 339 339 339 338 338 339 338 338 336 335 334 334 334 335 335
311 311 311 311 313 316 315 315 316 315 314 313 312 310 309 310 312 310 313 316 316 320 323 323 326 330 331 330 329 329 330 331 331 332 332 332 333 333 333 333 333 333 333 332 332 334 336 336 338 338 339 339 339 339 338 338 337 337 337 337 336 336 335 336 335 335 336 337 337 337 337 337 338 338 337 338 338 337 337 337 336 335 334 334 333 334
311 311 312 313 314 315 314 314 315 315 313 313 313 311 310 311 311 312 314 316 318 322 324 322 321 326 331 330 330 328 329 330 329 330 331 330 330 329 329 329 329 329 329 329 329 330 331 332 333 334 334 335 335 335 334 334 334 334 335 335 335 335 335 335 335 335 336 337 337 337 337 336 336 337 337 337 337 337 336 336 336 335 334 334 334 334
312 312 313 313 313 312 313 314 314 314 312 312 314 313 312 313 312 315 317 315 316 319 323 320 314 320 329 329 330 329 329 330 329 329 329 328 327 326 326 326 325 325 324 324 324 325 327 328 328 329 329 331 332 332 332 332 332 333 333 334 334 334 334 335 335 336 336 337 336 337 337 336 336 336 336 336 336 336 336 336 335 335 335 334 334 335
312 313 313 313 312 312 313 313 313 314 312 311 313 314 313 313 312 314 315 314 313 315 321 321 314 319 328 328 329 330 330 331 329 328 327 326 325 324 324 323 323 322 322 322 322 322 324 324 325 326 326 327 328 329 330 331 331 332 332 332 333 334 335 335 335 335 336 336 336 336 336 336 336 336 337 336 336 336 336 335 335 335 335 334 334 334
313 314 312 312 312 313 313 312 313 313 311 311 314 314 313 313 312 313 313 312 313 316 320 321 316 318 325 328 329 329 330 331 330 328 326 324 323 322 321 321 321 320 320 319 319 320 321 322 322 323 324 324 325 326 328 329 330 332 332 332 332 333 334 334 334 335 336 336 336 336 336 336 337 337 336 336 336 335 334 334 335 334 334 334 334 333
314 314 313 313 313 312 312 312 314 313 312 313 314 314 314 313 313 313 312 311 313 315 314 317 315 314 322 329 329 329 330 331 331 328 325 323 322 321 320 319 319 318 317 317 317 318 319 320 321 322 323 323 323 324 325 326 328 329 331 332 332 333 333 333 334 334 335 335 335 335 335 335 336 336 335 335 334 334 334 334 334 334 334 333 333 332
314 313 313 313 313 313 312 313 313 313 313 313 313 314 314 313 313 313 312 310 312 313 311 314 313 312 322 330 327 328 330 331 331 327 324 323 321 320 319 318 318 317 316 317 317 318 319 319 321 321 322 322 322 323 323 324 325 326 328 329 331 331 332 333 333 334 334 334 334 334 335 335 336 335 335 334 333 333 333 333 334 334 334 333 333 331
313 313 313 313 313 313 313 313 313 313 313 313 313 313 313 313 314 313 313 311 311 312 311 312 313 313 321 328 326 327 330 331 330 327 324 322 320 319 318 317 317 316 316 316 318 319 319 319 320 321 321 321 321 321 322 322 323 324 324 325 327 327 328 330 332 332 333 333 333 333 333 334 334 334 334 333 333 333 333 334 334 334 334 333 333 332
313 314 314 313 313 314 314 313 313 313 313 313 313 312 311 312 312 311 311 311 312 312 311 312 315 313 317 325 329 330 331 329 328 326 324 321 319 318 317 317 316 316 316 316 316 318 319 319 319 319 320 320 319 319 320 321 321 321 322 322 324 324 325 327 328 330 331 332 332 331 331 332 332 332 333 333 333 333 333 333 333 334 333 333 334 333
313 313 313 313 314 314 314 313 313 312 312 313 312 311 311 310 312 312 310 310 311 312 313 314 313 313 320 328 331 331 329 326 325 324 322 320 318 317 317 317 316 316 315 315 315 316 317 318 318 317 318 318 318 318 318 319 319 320 320 321 322 323 323 324 325 327 329 330 331 330 331 331 331 331 332 332 332 332 333 332 333 334 334 334 334 333
313 313 313 313 313 313 313 312 311 312 312 312 311 310 310 310 313 314 312 310 311 313 316 316 314 318 329 332 331 330 327 324 322 320 319 318 317 317 316 316 315 315 314 314 314 314 315 316 316 315 315 315 316 316 316 317 317 318 319 319 320 321 322 323 324 325 327 328 330 330 331 331 331 331 331 332 332 332 332 332 333 334 334 334 334 333
313 313 313 313 313 313 313 312 312 313 312 312 312 311 310 310 312 312 311 309 311 314 316 317 317 323 331 332 329 327 324 322 321 318 317 317 316 316 315 315 315 314 314 313 312 313 314 314 314 313 314 314 314 314 314 315 315 316 317 317 317 318 320 321 322 323 324 326 328 329 329 330 331 331 331 331 332 332 332 332 332 333 334 335 334 334
312 313 313 312 313 313 313 313 313 312 311 312 313 311 310 311 310 311 313 314 312 314 317 321 325 328 331 330 328 326 324 322 320 318 317 316 315 315 315 314 314 314 313 313 312 313 313 313 312 312 313 313 312 313 313 313 314 314 314 315 316 316 316 317 318 320 321 323 325 327 327 328 330 330 331 331 331 332 332 332 332 332 333 334 334 334
312 312 312 312 312 313 313 313 313 312 311 312 311 310 311 312 313 311 314 318 314 314 321 326 330 331 332 331 328 325 324 322 320 319 317 316 315 315 315 314 313 313 313 312 312 313 313 312 311 312 312 312 312 312 312 313 313 313 312 313 314 315 314 315 316 318 319 320 322 324 326 327 328 329 330 330 331 332 332 332 332 332 332 333 333 334
312 311 312 313 312 312 313 313 314 313 312 312 310 311 312 313 315 312 312 315 313 315 322 326 330 332 332 333 329 326 325 322 321 320 318 316 315 314 313 313 313 313 312 312 312 312 312 311 311 312 312 312 312 312 312 313 313 313 312 313 313 314 314 314 315 316 318 319 320 322 323 325 326 328 329 330 330 331 331 332 332 332 332 332 332 332
312 311 312 313 312 312 312 313 314 313 313 313 311 312 312 311 312 311 312 314 312 316 323 324 327 329 328 332 331 328 325 323 322 321 318 316 314 313 312 312 312 312 311 311 310 310 311 310 311 311 311 311 311 311 312 312 313 313 313 313 313 314 314 314 314 315 316 317 318 319 320 322 324 326 328 329 329 330 330 331 331 331 332 332 332 332
313 312 312 312 312 312 312 313 312 312 313 313 312 312 312 312 311 311 311 313 310 314 322 324 324 325 325 330 331 328 326 324 322 321 318 315 313 312 312 312 311 311 310 309 308 309 309 309 310 310 310 311 310 311 311 312 312 313 312 313 313 313 313 313 314 315 315 316 317 317 318 319 321 323 325 327 328 329 330 330 330 331 331 331 332 332
313 314 313 313 313 312 312 312 313 313 312 312 312 311 311 312 312 313 312 311 310 311 319 325 324 323 326 328 329 329 326 323 321 319 316 314 312 311 311 311 310 309 308 308 307 308 308 309 309 309 309 310 310 310 310 311 311 312 312 312 313 313 313 313 314 314 314 315 315 315 316 317 318 319 321 323 325 328 329 330 330 330 330 331 331 331
312 313 314 314 313 311 313 315 317 316 313 312 312 310 311 312 312 313 313 312 312 310 315 320 321 325 326 326 327 326 323 321 319 317 315 313 311 311 310 310 309 308 307 307 307 307 308 308 308 308 309 310 310 310 310 310 311 311 312 312 312 312 312 312 313 313 313 314 314 314 315 315 316 317 318 320 321 324 326 328 329 330 330 330 331 331
317 315 313 314 314 314 317 319 317 317 316 315 313 311 312 313 312 311 311 313 312 312 314 313 317 326 323 320 321 320 317 317 316 314 313 311 311 310 310 309 308 307 307 306 307 307 307 307 307 308 309 309 310 311 310 310 310 311 311 311 311 312 312 312 312 312 313 313 313 314 314 314 315 316 317 318 318 320 321 323 326 328 330 330 331 331
320 318 315 316 317 317 318 318 317 317 316 315 315 315 314 313 314 312 312 314 313 313 315 310 316 327 321 316 317 315 314 314 313 313 312 310 310 310 309 308 307 307 306 306 306 307 307 307 308 308 309 310 311 311 310 309 309 310 310 310 310 311 311 311 311 312 312 312 313 313 313 313 314 315 315 316 317 317 318 320 322 325 328 330 330 330
318 319 318 318 318 319 318 317 316 317 316 316 318 320 319 317 317 316 315 315 313 313 314 309 317 327 319 314 314 313 312 312 311 311 311 310 310 309 308 307 307 307 306 305 305 307 307 308 307 308 309 310 310 309 309 309 309 309 309 309 310 310 310 310 311 312 312 311 312 313 313 313 313 313 314 314 315 316 317 318 320 322 325 327 329 330
318 321 321 318 317 318 319 318 318 317 317 319 321 320 321 320 318 317 314 312 313 316 314 311 321 324 318 314 314 313 312 310 309 309 309 309 309 308 307 307 307 307 306 304 305 306 307 308 308 308 308 308 308 307 308 308 308 308 309 309 309 309 310 310 310 311 311 311 312 312 312 312 312 312 313 313 314 315 316 317 319 321 324 325 327 329
321 323 324 323 319 318 320 321 322 320 318 320 322 320 321 323 323 320 313 310 315 317 316 318 325 323 318 316 314 313 312 310 309 308 308 307 307 307 306 305 305 305 304 303 304 305 307 308 308 308 307 306 306 306 307 307 307 307 308 308 308 308 308 309 309 310 310 310 311 311 311 311 311 311 312 312 313 313 314 316 317 319 322 324 326 327
322 322 322 324 323 321 322 322 322 323 322 322 323 323 322 322 325 324 319 318 317 313 317 326 326 322 320 317 314 313 311 309 309 308 307 307 306 306 305 304 304 304 303 303 303 303 305 307 308 307 306 306 306 306 306 306 306 306 307 307 307 307 308 308 309 309 310 310 310 310 310 310 310 311 311 311 311 312 313 314 315 317 320 323 325 326
322 321 321 322 322 320 321 320 320 322 322 322 323 324 324 323 325 327 325 327 324 317 321 327 325 322 319 316 313 312 310 308 308 307 306 305 304 304 303 303 304 303 303 303 303 303 304 305 306 306 306 306 306 305 306 306 305 306 306 306 306 306 307 307 308 309 309 309 309 309 309 309 310 310 310 310 310 310 311 312 313 314 316 319 322 325
321 320 320 321 321 320 320 320 320 320 320 321 321 322 324 324 325 326 326 326 326 325 325 325 322 320 316 313 311 309 307 306 306 305 305 304 303 303 303 303 303 303 302 303 304 305 305 305 305 305 305 305 305 305 306 306 306 306 305 306 306 306 307 307 308 308 309 309 309 309 309 308 309 309 309 309 309 309 310 310 311 311 312 314 317 321
321 320 320 320 320 320 320 320 320 320 320 320 320 320 322 323 323 324 324 324 324 325 323 320 318 315 312 309 308 306 306 306 305 304 304 303 303 303 302 303 303 302 302 303 303 304 305 305 305 305 305 305 305 305 305 305 305 305 305 306 305 306 306 307 307 308 308 308 308 308 308 308 308 308 308 308 308 308 308 308 308 309 310 311 312 315
321 319 320 321 321 320 320 320 321 321 320 319 318 318 320 320 320 320 321 321 322 321 319 318 317 313 309 307 306 306 305 305 304 304 303 302 302 302 302 302 302 302 303 303 303 303 304 305 304 305 305 304 304 304 304 305 305 305 305 305 305 305 306 307 307 308 308 308 308 308 307 307 307 307 307 308 307 307 307 307 307 307 308 309 310 311
320 320 320 321 322 320 319 320 322 321 320 321 317 315 317 318 318 318 318 319 319 319 319 318 316 310 307 307 306 305 305 304 304 303 302 302 302 302 302 302 302 302 302 302 303 303 304 304 304 304 304 304 304 304 304 304 305 305 305 305 305 305 306 306 307 307 307 307 307 307 307 307 307 307 307 307 306 306 306 306 306 306 306 307 308 308
321 321 321 321 322 320 319 320 321 322 322 320 314 312 315 317 317 317 317 317 317 316 316 315 311 307 307 306 305 305 304 303 303 302 302 302 302 302 302 302 302 302 302 302 303 304 304 304 303 303 303 303 304 303 304 304 304 304 304 305 305 305 305 306 306 306 306 307 307 307 307 306 306 306 306 306 306 306 306 305 305 305 305 306 306 306
322 320 320 320 320 320 319 320 323 323 321 315 312 313 315 315 314 314 314 314 314 313 312 310 307 306 306 305 304 303 302 302 301 301 301 302 302 302 302 302 302 302 302 302 303 304 303 303 303 303 303 303 303 303 304 304 304 304 304 304 305 305 305 305 306 306 306 306 306 306 306 306 306 306 306 306 305 305 305 305 304 304 304 304 304 304
321 319 319 320 320 320 320 321 323 321 315 312 313 313 313 314 314 314 313 312 312 311 309 308 306 305 304 303 302 302 301 301 301 301 301 301 302 302 302 302 302 302 302 303 303 303 303 303 303 303 303 302 302 303 303 304 304 304 304 304 304 304 304 305 305 305 305 305 306 306 305 305 306 305 305 305 305 305 304 304 304 303 303 303 303 303
320 319 319 319 319 320 320 319 318 316 315 314 313 313 313 314 315 316 315 311 310 309 308 306 305 304 302 302 302 301 301 302 301 301 301 301 302 302 302 302 302 302 302 302 302 302 302 302 302 302 302 302 302 302 303 303 303 304 304 304 304 304 304 304 304 305 305 305 305 305 305 305 305 305 305 305 304 304 304 303 303 302 302 302 302 301
319 319 318 318 318 318 319 318 317 319 319 317 313 313 313 314 314 314 315 312 308 307 306 305 304 303 302 302 302 302 303 303 302 301 301 301 301 302 302 302 302 302 302 302 302 302 302 302 302 302 301 301 302 302 302 302 302 303 303 303 304 303 303 303 303 304 304 304 304 304 304 304 304 305 305 304 304 304 303 303 302 302 301 301 301 300
318 318 318 318 317 317 319 319 319 320 318 316 314 313 313 313 313 313 316 315 308 305 306 305 304 303 303 303 303 304 306 307 303 301 300 300 301 301 302 302 301 301 301 302 302 302 301 301 301 301 302 301 301 302 302 302 302 302 303 303 303 303 303 303 303 303 303 303 303 304 304 304 304 304 304 304 304 304 303 303 302 301 301 301 300 300
317 317 317 318 318 317 318 318 317 316 314 314 314 313 312 312 313 315 319 317 308 304 305 305 304 303 303 303 304 305 308 307 303 301 301 301 301 301 301 301 301 301 301 301 301 301 301 301 301 301 301 301 301 302 302 302 302 302 302 302 302 303 303 303 303 302 302 302 302 303 303 303 304 304 304 304 304 304 303 303 302 301 301 300 300 300
315 315 316 318 317 317 318 318 315 313 312 313 313 312 311 312 314 317 319 314 307 305 305 304 303 303 303 304 305 305 305 303 301 301 301 301 301 301 301 301 301 301 301 301 301 301 301 301 301 301 301 301 301 301 301 301 302 302 301 302 302 302 302 302 302 302 302 302 302 302 302 302 303 303 304 304 304 304 303 303 302 302 301 300 300 300
315 314 315 316 316 316 316 316 315 313 311 312 312 311 312 314 315 315 313 309 307 306 305 304 303 303 304 305 305 303 302 301 301 301 301 301 301 301 301 301 301 301 301 301 301 301 301 301 301 301 301 301 300 301 301 301 301 301 301 301 301 301 302 302 302 302 302 302 302 302 302 302 302 302 303 303 303 303 303 303 302 302 301 301 300 300
314 315 315 315 314 315 315 315 315 315 312 311 312 312 312 313 313 310 309 308 307 306 305 304 304 304 304 303 303 302 301 301 301 300 301 301 301 301 301 301 301 301 301 301 301 301 301 301 301 301 301 300 300 301 301 301 300 301 300 300 301 301 301 301 301 301 301 302 301 301 301 301 301 302 302 302 302 302 302 302 302 302 301 301 300 300
313 314 315 313 311 314 315 315 313 313 311 311 312 312 311 311 310 309 309 308 307 306 305 305 304 304 304 303 302 302 301 301 301 300 300 301 301 301 301 301 301 301 301 301 300 300 300 301 301 301 301 301 301 300 300 300 300 300 300 300 300 300 300 301 301 301 301 301 301 301 301 301 301 301 301 301 301 301 301 301 301 301 301 301 300 300
312 312 313 312 309 311 313 311 308 308 309 310 310 310 310 309 309 309 309 308 307 306 306 305 304 304 303 302 302 301 301 301 301 301 301 301 302 302 302 301 301 301 301 300 300 300 300 300 301 301 301 300 300 300 300 300 300 300 300 300 299 299 300 300 300 300 300 300 301 301 301 301 301 301 301 301 301 301 301 300 300 300 301 301 300 300
309 309 311 310 308 308 308 307 306 307 308 308 308 308 308 308 308 308 308 307 307 306 305 305 304 303 302 302 302 301 301 301 301 301 301 302 302 301 301 301 301 300 300 300 300 300 300 300 300 300 300 300 300 300 300 300 300 300 299 299 299 299 299 299 300 300 300 300 300 300 300 301 301 301 301 301 300 300 300 300 300 300 300 300 300 300
308 309 310 310 309 310 310 307 306 307 307 306 307 307 307 307 308 308 307 307 307 306 305 304 304 303 303 302 302 302 302 301 301 301 301 302 302 301 301 300 300 299 299 299 299 299 299 300 300 300 300 300 300 300 300 300 300 299 299 299 299 299 299 299 299 299 300 300 300 300 300 300 301 301 301 301 301 300 300 300 300 299 298 299 299 300
309 310 310 309 309 310 309 305 305 305 305 305 306 306 305 306 306 306 306 306 306 306 305 305 304 303 303 303 302 302 301 301 301 301 300 301 301 300 300 299 299 298 298 298 297 297 298 299 300 300 300 300 299 299 300 300 300 299 299 299 299 299 299 299 299 299 299 299 299 299 299 300 300 300 301 301 301 301 300 299 299 299 298 298 297 298
309 309 309 309 308 307 306 304 304 305 305 305 305 305 304 305 305 305 305 305 305 304 304 304 304 304 303 303 303 302 301 301 301 301 300 300 300 299 299 299 298 298 298 297 297 297 298 299 299 299 299 299 299 299 299 299 299 299 299 299 299 299 299 299 299 299 299 299 299 299 299 299 299 300 301 301 301 301 300 299 298 298 298 297 297 297
309 309 308 308 307 308 307 306 306 308 306 304 304 304 303 304 304 304 304 304 304 303 303 302 303 303 303 303 303 302 301 301 301 300 300 299 299 299 298 298 298 297 297 297 297 298 298 299 299 299 299 299 299 299 298 298 299 299 299 299 299 299 299 299 299 299 298 298 298 298 298 298 298 299 300 300 300 301 301 300 298 298 297 297 297 297
309 309 309 309 310 310 308 307 308 308 306 304 303 303 303 304 304 304 304 304 303 304 304 303 302 302 302 302 301 301 301 301 300 299 299 299 298 298 298 298 297 296 296 296 297 298 298 298 298 298 299 299 299 298 298 298 299 299 300 299 299 299 299 299 299 299 298 298 298 298 298 298 298 298 299 299 299 300 300 300 300 299 298 297 297 297
Wind_Speed
9 8 9 10 11 14 14 15 11 5 7 11 11 10 9 11 9 8 9 6 7 8 6 7 9 10 10 10 9 9 9 10 10 9 8 8 8 8 8 8 8 7 8 9 10 10 10 9 10 8 7 7 7 8 11 12 12 13 14 13 12 11 10 12 13 14 14 15 14 14 15 16 15 14 13 14 14 14 15 15 15 14 14 14 17 19
10 10 11 13 13 14 16 15 10 6 9 10 10 9 9 10 9 10 9 6 4 5 6 9 10 10 9 9 9 9 11 12 11 10 10 10 10 9 10 12 12 11 11 12 14 13 12 12 10 8 6 5 4 5 7 7 5 7 9 9 8 7 6 8 10 12 14 15 15 14 15 16 14 13 13 14 14 15 16 17 16 14 13 13 16 18
10 10 13 15 13 13 14 13 11 8 10 9 8 9 8 8 9 10 8 7 5 4 7 10 9 9 10 9 9 10 11 11 11 11 12 12 12 11 12 13 13 13 13 13 13 14 14 12 9 8 6 4 3 2 1 2 2 1 2 2 3 4 6 8 9 10 11 12 12 12 13 14 13 12 13 13 13 14 15 16 16 16 15 15 16 18
9 10 13 14 12 14 14 14 14 10 9 9 8 8 8 10 10 8 7 8 5 4 8 11 8 7 9 9 9 9 9 10 11 12 13 13 13 14 14 14 13 14 13 12 13 13 14 13 11 11 10 10 10 10 10 9 7 5 4 4 3 5 6 6 7 8 8 7 7 8 9 10 11 11 12 12 12 14 16 15 15 17 16 16 18 19
9 9 13 14 14 16 14 14 15 11 9 10 10 9 8 11 9 6 10 10 6 6 10 12 8 5 6 8 8 7 8 10 10 11 12 12 12 14 15 14 14 13 13 13 13 12 14 15 14 15 15 15 14 14 13 11 10 9 8 7 5 5 5 4 4 5 5 5 5 5 6 7 9 9 10 11 13 14 15 16 17 18 17 17 19 19
10 9 14 16 16 17 15 14 16 13 9 9 12 10 8 12 9 9 14 11 7 7 11 12 8 6 6 7 8 7 7 10 10 11 11 11 12 13 13 13 13 13 12 12 12 13 14 15 15 16 17 16 15 15 13 11 12 11 9 9 8 7 5 4 3 3 3 3 5 5 6 8 9 10 10 11 11 11 12 14 15 16 16 17 18 19
8 11 14 16 16 18 16 14 16 15 10 8 12 11 7 11 10 11 13 11 6 6 10 11 8 6 7 6 8 8 9 11 10 11 11 10 11 11 12 12 12 11 11 11 13 14 16 17 17 18 19 17 17 16 14 13 13 12 11 10 10 9 7 5 4 3 2 3 5 5 6 8 10 11 11 10 10 9 10 12 13 15 16 17 18 19
9 14 16 17 17 16 14 12 15 17 11 6 12 14 10 9 10 11 11 9 5 5 9 11 9 5 7 7 9 10 10 11 10 10 10 10 11 12 12 13 12 11 11 11 12 14 16 17 18 18 19 18 17 17 16 15 14 14 13 12 11 9 8 6 6 5 3 4 5 6 6 7 8 10 10 10 9 9 10 11 13 15 15 16 18 20
11 15 17 18 17 13 12 12 14 17 12 4 11 15 12 9 10 10 10 8 5 4 8 12 10 7 7 8 9 11 10 10 9 9 9 10 11 12 12 13 12 11 11 12 12 13 15 16 17 17 18 18 17 17 17 16 15 15 14 14 12 10 9 8 7 6 4 4 5 6 7 8 7 8 9 8 8 8 9 11 12 12 13 15 18 21
11 15 17 17 14 11 13 13 14 17 11 5 10 12 9 8 8 7 8 7 6 6 9 12 13 9 6 8 10 10 9 9 8 8 8 10 10 11 11 11 11 10 10 11 12 13 15 16 17 16 17 18 17 17 16 15 16 16 15 15 14 13 12 11 9 7 5 5 6 7 8 8 8 8 9 9 9 9 9 11 11 10 11 13 16 18
10 12 14 14 12 11 13 11 13 17 11 8 9 10 8 8 7 6 7 6 7 8 10 14 15 11 6 8 8 7 7 9 9 7 8 9 10 11 10 10 10 10 10 10 11 13 15 16 16 16 17 18 18 17 17 16 15 15 15 15 15 15 14 12 11 10 8 6 6 8 10 10 9 8 8 9 11 11 10 11 11 10 10 10 12 14
11 12 10 10 11 11 11 9 10 13 10 8 9 9 8 8 6 6 7 6 8 9 9 13 14 11 8 7 7 8 9 10 10 9 9 9 10 10 10 10 10 10 10 10 10 12 14 16 17 18 18 18 19 19 18 17 16 15 15 16 16 16 15 13 12 10 9 8 7 8 9 9 9 8 8 9 11 12 11 11 11 9 9 9 10 11
11 13 12 11 11 11 11 10 8 9 10 10 10 10 10 9 8 9 9 8 8 5 6 10 12 8 3 6 10 11 12 12 11 9 10 10 10 10 10 10 10 10 10 10 10 10 13 15 17 18 18 18 19 20 19 18 17 16 16 17 17 17 16 14 12 11 9 8 8 8 7 7 7 7 8 10 11 12 12 11 10 8 8 10 11 12
9 12 15 14 11 12 13 10 9 9 11 12 11 10 10 9 9 10 9 9 9 5 5 7 10 7 4 7 12 13 12 13 12 10 10 11 11 10 10 10 10 10 10 10 10 10 12 14 16 16 17 17 18 19 19 19 18 17 16 17 18 17 16 15 13 12 10 9 9 8 7 6 7 8 9 10 11 11 11 11 9 8 9 10 11 13
11 10 13 14 10 13 16 11 10 10 11 12 11 10 10 8 8 9 8 10 10 7 7 6 7 6 6 7 12 13 12 12 12 11 10 11 10 10 9 10 10 10 9 9 9 10 13 15 16 16 16 16 17 18 18 19 19 18 17 17 17 16 15 15 14 12 12 10 9 9 8 7 7 8 10 10 10 11 11 10 10 9 10 10 10 12
12 8 13 16 10 15 18 14 11 12 11 11 10 11 10 9 8 5 2 4 6 8 7 5 2 3 5 9 12 11 11 12 12 12 11 10 10 9 9 9 9 8 8 8 8 10 12 14 15 15 15 15 16 16 17 18 18 18 17 17 17 16 16 16 14 12 12 11 10 9 9 8 9 10 11 10 10 11 11 11 10 10 11 11 11 11
10 7 14 17 11 15 19 16 14 13 9 8 10 11 6 6 7 6 2 2 4 8 6 4 4 6 5 7 10 11 11 12 11 12 12 10 10 10 9 9 8 8 8 8 8 9 11 13 14 14 14 15 15 16 15 15 16 16 16 16 16 17 18 17 15 13 12 11 10 10 10 10 11 12 12 12 12 12 12 11 10 11 12 12 11 11
8 6 13 17 13 12 14 15 15 13 10 7 10 11 5 2 4 7 6 4 6 8 5 5 9 10 7 5 9 12 12 11 10 11 12 11 11 10 9 9 8 8 7 8 8 9 11 13 13 14 14 14 14 14 14 14 14 14 14 15 16 17 18 17 16 15 14 13 12 11 12 12 12 12 12 11 12 12 12 12 11 11 12 12 11 11
8 6 10 15 16 13 10 12 13 12 10 8 9 11 7 5 6 7 7 7 10 8 5 9 11 9 7 7 10 13 12 12 11 11 11 11 10 9 9 8 8 8 7 7 8 9 11 13 14 15 14 15 14 14 14 13 14 15 15 15 16 17 17 17 16 15 14 14 13 13 14 14 13 13 12 11 10 11 11 12 12 12 13 12 12 12
8 6 7 12 13 13 10 10 11 11 9 8 8 10 8 6 7 8 6 6 9 8 6 9 10 7 5 8 13 14 13 14 12 11 11 11 10 9 8 7 7 7 7 8 7 8 11 13 14 15 14 14 14 14 14 14 14 16 17 17 18 18 18 18 17 16 16 15 15 15 15 15 14 13 12 12 11 11 11 11 11 12 13 13 13 13
7 6 5 10 10 11 11 9 10 12 12 9 8 11 10 6 5 8 6 4 7 8 8 7 8 6 3 4 10 14 13 13 13 12 12 11 11 10 8 8 7 7 7 8 8 9 11 12 13 14 14 14 14 14 14 14 15 17 18 19 20 20 20 19 18 17 17 16 16 17 17 16 15 14 13 13 12 12 11 11 11 11 12 14 14 14
6 7 6 9 10 11 9 5 3 6 10 11 10 11 12 8 7 8 7 4 5 6 7 7 7 6 5 4 6 11 11 11 12 13 13 12 11 10 9 9 8 8 8 8 8 9 12 13 13 14 14 14 14 14 15 14 15 17 18 19 19 20 21 19 18 18 18 17 18 18 18 17 16 15 15 15 13 12 12 11 11 11 11 13 14 15
2 5 8 9 9 7 6 5 2 1 3 8 10 11 12 10 9 9 8 7 6 4 4 6 6 4 5 6 9 11 11 11 11 13 14 12 10 10 10 9 9 8 8 8 9 11 12 13 13 13 14 14 14 14 15 16 16 17 19 19 19 20 20 19 19 18 18 18 19 19 18 18 17 16 16 16 15 14 13 13 12 12 12 12 13 14
2 5 8 8 7 5 6 5 3 2 3 7 8 8 10 10 9 7 6 7 8 7 6 6 5 4 5 6 9 11 12 12 10 12 14 12 10 10 10 9 9 8 8 8 10 12 13 13 14 13 14 14 14 14 15 16 16 17 18 18 18 18 19 19 18 18 18 18 19 18 19 19 18 17 17 17 16 16 15 14 13 13 13 13 13 14
5 6 7 8 9 7 6 7 7 7 7 7 5 3 3 5 8 5 3 6 7 8 8 7 4 5 6 7 9 11 13 13 11 12 12 11 10 9 9 9 9 8 8 8 10 12 13 14 15 14 14 14 13 14 15 16 16 16 17 18 17 17 18 18 18 18 18 18 19 19 20 20 20 19 19 18 17 17 16 15 15 14 14 14 14 15
3 2 3 8 12 11 10 9 7 8 8 5 4 4 1 3 8 6 5 7 6 7 9 6 3 7 9 10 11 11 12 13 12 11 10 10 10 9 9 9 8 8 9 10 10 11 12 13 14 14 14 14 14 15 15 16 16 16 16 17 17 16 17 17 17 17 18 18 19 19 20 21 21 21 21 20 19 18 17 16 15 14 14 14 15 16
3 3 4 1 5 6 5 3 1 5 9 7 7 6 4 2 2 4 7 7 6 8 6 3 9 13 12 12 12 11 11 12 12 11 10 10 9 9 9 9 8 8 8 9 10 9 10 12 13 14 14 14 14 15 15 15 15 15 15 16 16 16 16 17 17 17 17 18 18 19 20 21 21 21 22 21 20 19 18 17 16 15 14 14 14 15
4 4 6 8 7 6 6 6 4 5 8 9 9 7 5 3 1 3 5 2 4 8 5 6 15 17 14 13 13 12 11 11 12 11 10 10 10 9 9 9 10 9 9 9 9 10 10 11 12 13 14 14 14 14 14 14 14 15 15 15 16 16 16 17 18 17 17 18 18 19 20 21 21 21 22 22 21 20 19 18 17 17 16 14 14 15
4 5 4 7 10 10 8 8 8 10 12 11 10 9 7 5 3 4 3 3 0 3 5 10 15 15 14 14 13 13 12 12 12 11 10 11 10 9 9 10 10 10 10 10 10 10 10 10 11 12 13 13 14 14 14 14 14 15 15 15 16 16 16 16 17 18 18 18 19 20 20 21 21 21 22 22 22 22 20 19 19 18 17 16 15 14
3 5 6 9 12 11 9 9 10 13 14 14 13 12 10 11 10 10 9 8 8 9 11 16 17 14 12 13 13 13 12 12 12 11 11 11 10 9 9 10 11 10 10 10 9 9 9 10 11 11 12 13 14 14 14 15 15 15 16 16 16 16 16 16 17 18 18 18 19 20 20 21 21 22 22 23 23 23 22 21 20 19 19 19 17 15
2 6 9 8 9 9 8 9 10 13 15 16 15 12 11 13 12 12 11 11 12 13 14 18 18 12 9 12 14 13 12 12 12 12 11 11 10 9 10 11 10 10 10 9 9 8 9 10 11 11 12 13 13 14 14 15 15 16 16 16 17 17 17 17 18 18 18 18 20 20 21 22 22 22 23 23 24 24 23 23 21 20 20 20 19 19
4 7 9 6 5 6 7 9 12 14 16 16 14 12 10 9 8 8 6 4 6 13 16 14 11 9 9 12 14 13 13 14 13 12 11 10 10 10 10 10 10 9 9 9 9 8 9 10 11 12 12 13 13 14 15 15 15 16 17 17 17 17 17 18 18 19 19 19 20 21 22 22 23 23 23 24 24 24 24 24 23 22 22 20 21 21
6 8 8 6 5 5 6 8 8 8 10 9 8 8 7 8 10 9 8 7 9 12 11 7 8 10 12 13 14 14 14 14 12 10 10 11 11 10 10 10 10 9 9 9 9 9 9 10 11 12 12 13 13 14 14 14 15 16 17 17 18 18 18 18 19 19 19 19 20 21 22 23 23 23 24 24 24 24 24 24 24 24 23 21 21 21
8 9 6 4 4 6 8 5 3 6 6 3 3 2 2 7 11 12 12 11 9 7 7 9 13 15 13 13 14 14 13 12 11 10 10 10 10 10 10 10 10 10 10 9 9 10 10 10 11 11 12 12 13 13 14 14 15 16 16 17 18 18 18 19 19 19 19 20 21 21 22 23 23 24 24 24 24 24 24 24 24 24 22 21 21 21
9 8 5 3 5 7 7 6 6 6 3 2 2 2 4 9 14 16 14 11 8 10 14 17 17 15 14 13 14 14 14 14 13 12 12 10 9 9 10 10 10 9 9 9 9 10 11 11 11 11 12 13 13 13 14 14 15 16 16 17 18 19 18 19 19 20 20 21 21 22 22 22 23 24 24 24 23 23 24 24 24 23 22 21 20 20
9 7 5 5 5 7 6 5 5 4 3 3 5 6 8 11 14 13 12 10 8 11 15 17 16 15 16 16 14 14 15 15 13 11 10 10 9 9 10 9 9 9 9 9 10 11 11 11 12 12 12 13 13 13 14 14 14 15 16 17 18 19 19 19 20 20 21 21 21 21 22 22 22 23 23 23 23 24 24 24 24 23 21 20 19 18
7 7 6 5 3 4 5 4 4 4 4 3 4 5 6 6 4 5 7 6 5 8 12 16 17 16 16 16 15 15 15 14 11 9 8 9 9 10 11 11 11 10 11 11 11 11 11 11 12 12 12 13 13 14 14 14 14 15 16 17 18 19 20 20 20 20 21 21 21 21 21 21 21 22 23 23 24 24 23 23 23 22 21 20 20 19
3 3 5 5 1 3 6 6 5 6 4 4 6 8 5 1 1 4 8 5 4 7 11 15 17 17 17 16 16 15 12 10 8 6 7 9 10 11 12 12 12 11 11 11 11 11 11 11 12 12 12 13 14 14 14 14 14 14 16 17 17 18 19 20 21 21 20 20 20 21 21 21 21 22 22 23 23 23 23 22 22 22 21 20 20 20
6 3 3 5 4 5 6 6 5 4 2 4 9 10 7 4 4 6 6 4 5 9 10 13 16 17 17 16 15 12 8 6 7 7 7 9 10 11 11 11 11 11 10 10 10 11 11 11 11 12 13 13 14 14 14 14 14 14 15 16 17 18 19 20 21 21 21 20 19 19 20 21 21 22 22 22 22 21 21 21 21 21 20 20 20 20
6 4 2 5 6 6 5 4 4 3 2 5 10 11 7 4 4 5 5 5 9 12 11 13 14 15 15 15 12 7 4 5 8 9 10 11 11 11 11 11 11 10 10 10 10 10 10 10 11 12 12 13 13 13 13 13 13 14 15 16 17 18 18 19 19 20 20 20 20 20 20 20 21 22 22 22 21 20 19 19 19 19 19 19 20 20
5 3 1 4 6 5 4 4 4 3 3 7 10 9 7 5 4 4 2 6 13 15 13 12 13 12 12 11 7 3 5 8 11 12 12 13 12 11 11 11 10 10 10 10 9 9 9 9 10 11 11 12 12 12 13 13 13 14 15 16 17 18 18 18 18 18 19 19 20 21 21 21 21 21 21 21 21 20 20 19 19 19 18 18 18 19
4 3 2 3 4 4 4 5 5 4 4 6 8 7 5 4 3 2 5 11 16 16 13 12 12 12 10 8 8 8 11 14 15 14 13 13 13 12 12 11 10 10 10 9 8 8 7 8 9 10 11 12 12 13 13 13 14 15 15 16 17 17 17 17 17 18 18 18 19 20 21 21 21 21 20 20 20 20 20 20 19 20 19 18 17 18
1 1 4 4 2 3 5 5 4 3 5 8 9 7 2 1 3 7 10 13 16 15 14 13 11 10 10 11 13 14 15 16 15 14 13 14 13 13 12 11 11 10 9 9 8 8 7 8 9 10 11 11 12 13 13 14 15 15 16 17 16 16 16 16 17 17 17 18 19 19 19 20 21 21 21 21 20 20 20 20 19 20 21 20 19 19
3 2 3 3 1 2 4 4 1 3 8 9 6 4 4 4 7 11 12 13 13 13 13 11 10 11 13 14 15 16 16 15 15 14 14 13 13 13 12 11 11 10 9 9 9 8 8 8 9 9 10 10 11 12 13 14 15 15 16 16 15 15 15 16 16 17 17 18 18 19 19 19 20 21 21 22 21 21 21 21 19 19 20 21 21 20
3 3 3 4 4 3 4 4 3 5 8 7 4 6 9 9 10 12 13 13 12 12 11 11 12 13 15 15 16 15 14 15 15 14 13 13 13 13 12 11 11 10 10 9 8 7 7 8 9 9 9 10 10 11 12 13 14 15 15 15 15 15 15 15 15 16 17 17 17 17 18 18 18 19 20 21 21 22 22 22 21 20 20 20 21 21
5 3 3 5 8 7 8 8 7 7 9 9 8 8 10 10 11 12 13 13 12 11 11 11 13 15 15 15 15 14 14 15 15 14 13 13 14 13 13 12 11 10 9 8 7 6 6 7 8 8 9 9 9 10 10 11 13 14 14 14 15 15 15 15 15 16 16 17 17 17 17 18 17 17 18 19 20 21 21 22 22 21 19 20 21 21
3 1 2 6 8 5 5 6 7 9 10 10 10 10 10 10 11 11 11 12 12 13 13 13 15 17 16 15 15 15 15 15 15 14 13 12 13 13 12 11 10 9 8 7 6 5 5 6 7 7 8 9 9 9 9 10 11 13 14 14 15 15 15 15 16 16 16 16 17 17 17 17 16 16 17 18 19 19 20 21 21 21 21 20 20 20
3 4 5 7 6 4 6 8 9 10 10 9 9 9 10 10 11 11 11 13 13 14 16 17 18 16 15 14 15 16 16 15 14 13 12 11 12 12 11 10 9 8 7 6 5 4 5 6 7 7 8 8 8 9 9 9 10 11 12 14 15 15 15 15 15 16 15 16 17 17 17 17 16 16 16 16 16 16 18 19 19 19 20 20 20 19
4 5 6 7 8 8 8 10 11 11 10 8 8 9 9 11 13 13 14 15 16 16 18 19 19 18 17 17 17 16 15 14 14 14 12 11 12 11 10 9 8 7 7 6 6 6 6 6 7 7 8 8 8 9 9 10 10 10 11 13 14 15 15 14 15 15 15 15 16 17 17 17 17 17 16 16 14 12 12 16 19 18 17 18 20 20
5 7 7 8 9 7 7 11 12 9 8 8 9 11 12 13 15 16 17 17 17 18 18 18 19 20 20 19 18 16 14 13 13 14 13 11 11 10 9 8 8 7 7 6 7 7 7 7 7 8 8 8 8 9 10 11 11 10 10 12 14 15 15 15 15 15 15 15 16 17 17 17 18 17 16 16 15 12 9 11 17 20 18 18 19 20
4 7 7 5 5 7 11 14 10 7 9 11 12 13 14 14 16 17 18 18 18 19 20 19 18 18 18 18 18 17 15 14 14 14 13 11 10 9 8 7 7 8 7 7 8 8 8 8 8 8 8 8 8 9 10 11 11 10 10 11 12 13 15 15 15 15 15 15 15 15 16 17 18 18 17 16 16 15 11 9 11 16 18 19 20 20
Wind_Direction
185 191 200 204 199 194 195 201 210 213 190 181 183 191 184 182 183 149 128 129 182 184 152 141 124 93 72 63 55 50 51 47 47 47 47 50 51 54 61 75 81 76 80 85 82 84 94 101 105 114 124 141 157 169 182 182 176 174 176 185 193 195 201 199 195 194 195 200 206 213 222 226 225 221 223 232 236 236 238 236 233 234 236 241 242 239
191 207 203 201 203 192 193 199 198 200 194 187 192 190 185 188 171 146 139 134 179 183 135 130 116 90 77 71 62 57 57 50 46 49 50 52 53 56 62 68 71 68 64 65 67 73 82 89 91 96 110 128 148 174 190 195 191 179 182 195 201 207 229 232 218 206 200 199 199 204 216 224 226 224 226 233 236 236 240 240 238 238 240 243 242 242
197 215 205 198 201 190 187 194 191 194 197 194 198 190 188 179 143 129 132 137 178 194 151 143 123 94 85 77 70 66 65 60 55 57 59 59 62 64 64 65 67 67 63 59 57 58 65 72 74 76 79 69 60 85 100 31 16 125 175 213 230 252 266 260 249 232 217 210 206 208 216 225 230 233 236 241 245 246 250 252 248 246 245 243 240 239
196 210 200 188 186 183 180 190 195 197 201 204 200 193 190 170 154 151 144 140 165 184 159 150 131 110 105 94 82 78 81 77 68 67 67 65 67 68 67 65 63 64 63 60 56 50 48 48 47 47 44 40 41 41 40 33 24 24 16 357 321 313 309 284 263 249 238 230 227 229 231 236 241 243 247 252 256 255 257 259 257 256 253 251 250 244
203 197 184 177 180 186 183 186 195 199 200 206 205 202 188 177 178 154 136 139 142 156 163 158 147 138 132 118 104 97 94 82 72 74 69 65 67 66 64 61 58 57 54 52 50 43 40 40 40 38 34 37 40 37 35 30 23 23 20 12 359 351 343 316 283 261 253 250 249 248 246 250 252 255 257 257 257 257 258 258 260 261 256 251 252 248
211 180 171 182 187 191 190 188 195 200 198 198 207 214 190 179 174 129 137 152 154 167 180 185 187 166 151 131 118 117 104 86 74 73 65 58 61 61 59 57 54 52 49 48 43 38 37 35 36 37 35 35 36 32 27 24 23 22 24 21 18 16 5 342 314 289 280 279 273 262 252 250 252 254 253 255 261 264 261 258 259 260 252 248 253 251
202 166 171 188 188 191 195 195 196 198 205 197 195 208 200 182 174 150 160 178 185 183 185 205 224 175 159 145 130 135 117 98 81 71 64 56 55 56 58 56 53 48 45 45 40 36 35 31 30 33 34 32 30 27 22 20 20 19 20 18 18 20 14 5 349 332 330 312 298 286 269 257 256 259 263 271 280 277 270 264 260 260 256 254 256 253
183 171 181 188 188 193 198 199 194 197 216 197 171 190 202 190 185 175 183 200 195 161 172 206 238 203 168 157 150 152 128 105 88 72 66 61 55 54 55 56 54 49 43 42 39 34 31 29 27 27 29 29 27 26 24 21 18 16 17 15 16 18 12 7 2 355 346 324 313 304 292 280 273 275 282 285 281 273 272 269 263 266 268 263 262 260
171 181 185 186 190 196 200 199 187 195 219 173 153 187 201 202 204 195 198 206 182 172 190 202 223 218 169 152 163 165 140 113 97 81 71 65 60 56 54 54 53 50 45 43 40 35 30 28 27 25 26 27 26 25 24 23 20 18 16 15 17 17 12 8 7 8 354 324 315 311 302 294 290 288 292 290 278 270 268 268 264 266 270 269 270 268
172 189 186 187 196 196 200 199 182 194 211 132 144 185 195 207 222 217 216 206 176 205 213 191 199 216 170 154 177 176 155 129 108 90 79 73 66 61 58 55 53 51 49 46 43 38 34 31 29 27 26 26 25 24 24 25 24 22 18 15 17 17 16 13 11 8 354 328 317 317 312 306 300 291 293 296 287 277 268 269 269 264 265 268 269 268
164 185 191 195 203 199 196 191 182 195 194 137 158 184 185 201 218 223 231 223 193 214 219 189 193 216 192 168 174 162 141 131 123 107 90 78 67 62 59 58 56 53 52 48 45 42 37 35 32 29 28 25 23 21 22 23 22 23 20 17 18 18 17 16 13 8 358 348 331 323 318 315 312 300 295 295 291 287 278 272 270 265 266 263 258 257
166 182 192 195 206 202 187 174 176 191 186 171 186 190 185 192 203 209 212 220 216 215 204 179 186 215 213 175 149 119 107 115 120 111 97 82 70 63 58 58 56 54 53 48 45 41 35 33 30 28 26 22 20 18 16 17 18 20 19 16 17 16 14 13 12 8 0 353 342 331 323 316 311 298 289 286 285 286 281 273 267 267 271 262 248 242
180 190 186 184 199 203 190 177 174 184 190 200 200 192 192 186 189 205 201 205 215 200 163 164 181 207 198 123 124 119 107 103 101 97 98 89 80 73 64 61 56 51 49 44 42 39 33 30 26 24 21 17 17 15 13 13 14 15 16 16 17 15 12 9 7 7 2 350 339 330 324 316 305 291 283 282 280 281 281 276 266 260 261 257 247 239
182 191 188 187 189 200 205 194 180 184 194 205 201 193 199 188 185 200 197 198 203 162 124 165 184 182 141 114 119 118 114 109 103 98 97 90 83 77 70 67 61 52 47 42 39 36 31 28 24 20 17 14 13 11 10 11 10 11 12 13 14 13 12 10 6 4 2 356 345 333 324 315 303 291 281 277 278 276 276 274 265 254 251 249 243 241
185 188 187 191 186 189 206 210 187 184 196 204 206 203 207 204 195 198 200 202 197 158 128 164 190 178 163 134 117 118 121 115 109 103 97 89 85 80 74 70 64 56 49 44 41 35 30 26 22 19 16 12 9 7 7 7 5 5 5 6 7 7 8 10 9 5 1 358 351 344 337 323 304 292 283 276 275 272 268 266 261 254 250 249 246 243
196 192 175 186 191 182 198 215 197 188 197 200 209 212 210 216 204 180 219 221 181 154 136 150 163 104 119 116 117 128 126 117 114 107 100 91 87 83 75 70 64 58 51 46 42 38 33 26 21 18 15 11 7 5 5 5 3 0 358 0 2 2 3 5 6 4 359 356 352 347 341 328 310 298 291 284 280 277 271 266 260 255 252 252 252 250
197 183 162 174 189 187 195 203 194 196 196 183 205 210 204 238 217 165 119 48 150 170 157 148 138 115 117 121 134 142 126 121 122 108 101 95 88 82 73 68 64 60 56 49 45 42 36 29 23 19 14 12 8 6 4 4 4 2 359 359 359 0 2 3 2 359 355 352 350 347 340 330 318 308 302 297 292 288 282 274 267 262 256 253 254 253
197 173 159 175 186 184 193 195 190 203 206 184 201 196 164 292 242 189 177 160 185 193 173 173 168 156 165 155 147 149 133 129 129 113 106 98 89 82 73 69 64 61 57 50 46 40 35 30 25 21 17 15 12 9 7 6 7 7 5 4 3 4 4 2 360 358 355 351 348 345 340 332 324 318 311 302 295 291 286 281 274 265 259 255 253 250
203 183 161 186 189 169 178 195 188 200 220 221 204 184 177 204 205 202 200 185 192 194 166 177 178 173 182 161 153 157 144 140 137 121 110 98 89 84 76 71 64 59 53 47 42 34 31 28 24 22 19 17 15 12 9 8 8 7 5 6 9 9 8 5 3 1 358 355 350 345 338 332 327 323 319 310 300 291 285 281 277 270 264 259 254 250
207 213 166 185 187 164 171 199 193 187 205 231 214 186 195 216 197 195 203 197 202 196 170 177 186 187 173 151 162 165 151 147 141 122 111 98 90 86 80 74 65 56 49 42 38 33 31 29 27 24 19 17 15 12 9 7 6 5 4 5 7 9 10 10 8 4 359 356 351 346 340 334 329 324 321 317 309 295 284 278 277 275 270 262 257 254
198 226 178 166 171 172 181 198 201 188 184 201 208 192 193 204 195 189 194 216 222 204 179 179 188 173 115 126 167 160 146 145 137 121 114 102 93 88 80 77 68 58 51 42 38 35 32 31 29 25 20 19 16 13 10 8 9 8 7 7 7 8 9 10 8 5 1 356 351 347 343 337 331 328 325 321 316 306 296 287 279 277 275 268 261 257
196 216 187 164 176 189 182 169 201 202 190 191 199 199 194 194 189 183 184 202 228 218 190 188 186 143 76 47 128 129 124 128 126 119 112 101 96 91 81 77 72 62 55 47 42 38 35 34 30 25 23 22 18 16 13 12 14 13 11 10 10 9 9 7 5 4 2 357 353 350 347 341 335 331 329 327 322 315 310 304 292 282 277 272 266 259
211 215 188 174 180 174 129 91 51 306 201 200 206 202 192 192 199 198 191 187 200 213 192 199 198 132 72 65 97 107 110 112 114 112 107 102 98 94 88 82 76 69 61 54 49 45 41 37 33 29 26 23 22 20 15 14 15 14 13 11 11 10 8 6 4 2 1 357 355 354 351 347 341 337 335 333 328 323 319 315 305 293 282 273 269 264
196 206 184 171 165 137 103 101 133 155 197 206 204 200 195 194 203 213 201 180 189 199 193 204 202 140 95 91 100 105 107 105 105 106 106 108 103 95 92 84 76 72 63 56 54 50 47 42 37 33 29 26 25 21 16 15 14 14 14 11 10 9 7 5 3 1 360 357 355 356 354 351 347 343 341 338 333 329 325 319 312 305 293 281 274 267
190 194 182 175 170 167 163 162 167 178 196 200 178 174 213 193 189 199 185 182 198 201 199 211 198 132 121 119 111 109 110 106 104 104 104 107 105 98 93 86 78 74 61 52 52 50 47 44 39 34 32 29 24 16 14 16 15 14 13 10 7 5 5 4 2 1 0 357 356 357 356 354 351 348 345 341 337 334 331 327 320 312 303 294 283 271
177 172 196 198 188 183 182 180 180 179 178 170 142 137 122 186 190 189 183 200 205 188 200 220 154 118 128 128 120 116 116 111 106 104 100 100 102 100 96 89 81 73 58 49 50 48 47 45 42 38 34 29 22 17 16 16 15 13 11 8 6 4 5 5 2 1 1 359 358 358 357 356 353 351 348 344 341 337 334 332 325 315 306 298 288 276
127 64 28 1 182 174 158 130 127 171 162 149 139 136 113 91 191 205 207 213 187 170 193 177 127 135 144 139 130 126 123 116 112 110 106 104 103 99 95 88 81 73 59 54 51 48 48 47 45 41 34 27 21 18 16 14 11 9 5 4 3 3 5 4 1 1 1 0 360 359 357 356 354 352 349 346 343 340 337 336 331 322 311 300 292 282
134 96 49 48 74 82 78 77 79 123 131 127 124 119 110 100 142 206 204 202 162 176 184 122 128 141 149 145 136 130 125 118 115 114 113 112 108 102 96 89 84 76 66 60 53 49 50 47 43 38 32 26 20 15 14 12 9 6 2 1 0 0 2 3 3 2 1 1 1 360 358 356 354 352 350 348 345 342 341 340 338 333 323 311 299 288
123 101 93 89 88 78 72 81 91 99 97 93 95 95 94 99 105 115 95 27 322 182 148 129 130 133 139 141 131 124 123 117 114 115 114 112 107 101 96 90 85 76 68 63 57 54 51 45 42 37 31 28 22 16 14 11 8 5 2 1 1 360 1 3 6 6 5 4 3 1 358 357 355 353 351 350 349 348 346 343 342 340 335 329 317 300
86 102 127 114 94 81 77 86 94 101 98 84 76 76 81 85 86 88 84 72 77 87 104 120 118 113 123 127 117 115 116 113 111 111 110 108 101 96 91 86 81 74 67 63 60 59 51 45 43 37 32 29 22 19 16 12 10 7 3 1 0 0 0 3 8 8 7 7 5 2 360 359 358 356 354 353 352 351 350 347 345 342 341 340 334 323
80 135 148 125 92 83 87 95 97 99 95 84 72 68 76 82 79 83 87 81 83 94 108 115 111 104 110 114 113 115 115 112 111 108 106 104 97 91 87 82 79 76 71 67 63 60 52 46 43 36 33 28 22 20 16 13 13 11 7 4 359 359 1 4 8 9 9 9 6 4 3 2 1 360 358 357 355 354 353 351 349 346 343 344 343 338
122 143 169 164 106 95 109 114 109 103 97 85 67 57 66 78 77 81 85 72 102 124 127 124 122 122 124 120 117 116 115 112 109 107 107 103 96 91 87 84 82 78 76 73 67 61 54 48 41 35 32 28 24 23 19 17 16 14 13 10 5 3 5 8 11 11 11 11 8 7 6 4 4 3 2 1 359 356 355 353 353 351 348 347 346 345
134 143 175 181 123 116 140 130 120 127 123 95 55 37 55 86 94 93 89 90 117 134 139 138 133 130 131 128 119 116 115 110 108 111 111 105 101 98 94 92 89 84 81 76 68 62 56 50 44 38 35 31 28 26 22 21 20 17 16 15 12 11 11 13 14 13 13 13 10 9 8 6 6 6 5 4 2 360 359 357 356 356 352 350 348 346
143 148 162 163 128 142 158 156 170 177 157 108 27 348 52 99 105 103 98 99 107 107 91 101 119 127 129 127 121 117 113 108 110 113 108 105 105 104 101 98 94 90 85 77 70 65 58 53 49 43 39 35 31 29 26 25 24 21 19 18 17 17 16 17 17 16 15 13 12 11 10 8 9 9 7 6 4 3 2 1 359 358 355 353 351 349
142 142 133 118 120 138 155 175 184 174 153 72 87 114 101 105 107 99 89 85 94 100 101 109 120 125 121 117 115 114 112 111 110 105 101 102 105 106 105 101 96 91 85 77 71 66 59 54 50 46 42 37 32 29 28 26 24 23 22 22 21 21 21 20 20 19 17 15 14 13 11 10 11 11 9 7 6 7 6 4 2 360 359 357 355 353
146 139 119 104 113 133 155 182 172 138 107 99 114 116 116 122 121 103 80 66 85 113 120 119 119 119 117 116 115 115 115 112 102 93 96 102 104 105 105 102 98 92 84 78 71 65 61 55 52 49 43 38 33 31 28 25 24 24 24 24 24 24 23 23 22 21 19 17 17 15 13 13 13 13 13 11 11 10 9 8 6 3 1 1 360 358
148 143 126 106 113 150 138 109 103 128 144 140 146 156 144 131 127 108 91 74 88 119 128 125 123 122 121 121 122 124 121 110 96 91 99 105 106 106 105 102 99 92 86 83 76 71 67 61 58 55 47 41 37 32 30 27 25 27 27 27 27 27 26 26 24 22 21 20 19 18 17 16 16 16 17 17 17 16 13 11 10 8 7 6 5 3
112 148 151 131 138 178 135 116 132 162 177 174 172 175 162 112 36 116 113 100 105 131 137 134 130 130 130 131 134 138 131 108 97 109 119 115 114 111 107 103 99 92 89 87 82 77 72 65 61 57 51 46 40 34 32 30 27 29 29 28 29 28 28 28 27 24 22 20 18 17 15 15 15 15 16 17 19 20 19 18 16 13 13 13 11 9
79 88 144 136 141 171 166 156 157 152 125 145 158 161 161 162 171 157 142 130 138 144 145 139 135 137 140 140 142 150 150 125 120 134 136 129 123 117 112 107 101 94 88 85 82 78 74 67 62 56 49 45 40 34 32 32 31 32 31 29 29 28 28 28 26 25 24 22 19 17 14 13 13 13 14 15 15 16 18 20 20 18 18 18 18 16
87 93 131 139 144 165 174 152 124 87 67 137 150 154 156 159 184 199 199 173 156 152 148 143 141 140 141 142 144 154 158 138 139 142 140 134 125 117 113 109 103 94 86 83 82 81 77 68 59 52 46 42 37 33 32 34 35 35 33 31 30 28 27 25 24 24 24 24 23 22 19 16 14 14 15 16 15 14 14 16 17 18 19 20 20 20
84 77 99 141 141 150 158 135 104 82 108 141 144 145 151 165 198 219 182 136 148 152 148 144 140 138 142 147 147 118 84 108 127 134 135 132 124 116 114 111 105 98 90 86 83 82 78 67 57 52 47 42 38 35 35 36 36 36 34 32 30 28 26 23 23 23 23 23 24 24 23 21 18 16 15 15 16 17 17 17 16 16 18 20 21 22
97 92 114 135 134 140 146 132 114 101 125 150 144 138 155 183 185 128 102 126 142 146 142 140 138 138 141 137 125 110 103 111 123 129 130 128 123 120 119 116 112 106 98 92 86 80 74 66 59 54 49 45 41 39 38 37 37 35 33 31 29 26 23 22 22 22 21 22 22 23 24 23 22 20 18 15 15 17 18 19 19 18 19 19 20 22
50 144 136 113 98 143 146 143 135 122 145 162 156 144 158 284 110 119 124 132 137 137 137 138 137 137 133 122 118 117 116 119 125 127 126 125 124 122 120 117 113 107 100 93 85 77 72 67 64 58 52 48 44 42 41 41 38 35 32 31 27 23 22 21 21 21 21 20 20 21 22 23 24 24 22 20 19 19 18 18 18 19 21 21 20 21
355 306 142 108 354 225 154 137 99 100 133 153 155 123 99 94 118 132 134 132 135 139 139 136 133 133 132 126 122 122 122 124 128 127 127 127 125 123 120 117 113 107 99 90 81 76 72 68 66 63 56 50 45 43 42 41 38 35 32 29 24 20 21 19 18 19 20 19 20 20 20 22 23 24 24 22 23 23 22 20 19 19 21 23 23 23
29 17 67 73 53 47 76 94 101 103 113 116 100 97 107 113 124 135 135 134 139 143 139 134 133 134 132 128 125 125 127 129 129 129 129 126 124 123 120 116 113 106 99 91 82 75 73 70 68 64 58 51 44 42 40 38 37 36 32 27 23 21 20 17 16 17 17 17 18 18 18 20 22 24 25 24 24 26 24 21 21 20 20 22 24 26
76 59 48 87 107 94 68 77 102 107 103 102 99 103 110 117 127 133 134 136 140 140 138 135 134 135 135 132 129 129 130 131 130 128 127 124 122 121 117 114 110 103 95 89 78 70 70 72 70 64 58 50 42 39 39 36 36 36 32 26 23 23 22 19 17 17 17 17 17 16 18 19 19 21 25 25 24 26 25 24 24 23 20 20 23 26
113 117 84 119 142 140 83 83 99 103 107 112 109 108 113 118 124 128 131 136 137 134 133 132 133 136 136 134 132 130 130 132 131 128 126 124 122 120 117 113 107 97 89 81 68 64 66 67 66 60 53 46 38 35 36 33 32 34 31 26 23 22 21 21 19 18 19 19 17 15 16 17 14 16 23 25 24 24 25 25 26 27 26 22 20 21
136 149 126 116 121 111 102 113 111 101 107 116 117 118 122 122 121 122 124 129 130 128 129 131 134 136 134 132 132 130 129 131 130 127 126 124 121 118 114 109 103 95 86 73 59 59 63 63 62 58 52 46 38 35 35 31 29 29 27 25 23 21 21 21 20 19 20 20 20 18 17 17 15 14 19 22 22 24 25 25 27 31 30 25 19 17
130 150 133 112 107 99 107 128 126 109 107 117 120 122 129 131 130 128 126 127 128 128 130 132 133 133 132 133 134 132 129 129 128 126 125 122 119 116 110 107 103 91 80 72 65 68 71 68 65 59 54 47 39 36 34 29 26 26 26 25 24 22 22 21 20 20 21 22 22 20 17 18 19 17 16 17 19 25 30 30 32 35 33 27 22 19
152 148 128 122 132 138 147 158 154 132 123 134 132 128 132 136 134 131 129 129 130 131 132 132 130 130 131 133 134 131 128 126 125 125 122 116 113 111 106 104 99 86 77 76 77 79 77 72 66 60 53 47 39 35 32 27 26 28 27 26 26 25 23 22 21 20 21 22 23 20 18 18 19 18 16 14 15 19 31 39 39 38 36 31 25 19
159 153 142 136 149 152 155 163 162 128 122 135 135 131 134 137 135 132 131 131 132 133 134 133 131 131 131 131 131 128 124 124 125 122 116 112 110 107 99 94 89 83 80 79 78 77 75 71 66 59 51 45 37 33 31 29 30 31 29 26 26 26 25 24 23 21 19 21 24 21 17 18 19 18 16 15 13 12 16 32 42 40 37 34 31 25